| time (UTC) | temp C | wind direction | speed KPH | gust KPH | rain 1hr cm | rain 24hr cm | rain mn cm | humidity % | barometer mb |
| 20260906080053 | 20 | 44 | 3.2 | 9.7 | 0.00 | 0.08 | 0.00 | 84 | 1016.6 |
| 20260906074551 | 20 | 67 | 4.8 | 11.3 | 0.00 | 0.08 | 0.00 | 84 | 1016.5 |
| 20260906073048 | 20 | 18 | 3.2 | 11.3 | 0.00 | 0.08 | 0.00 | 85 | 1016.5 |
| 20260906071545 | 20 | 51 | 3.2 | 11.3 | 0.00 | 0.08 | 0.00 | 85 | 1016.5 |
| 20260906070044 | 20 | 49 | 4.8 | 12.9 | 0.00 | 0.08 | 0.00 | 86 | 1016.4 |
| 20260906064549 | 20 | 77 | 4.8 | 11.3 | 0.00 | 0.08 | 0.00 | 87 | 1016.6 |
| 20260906063048 | 20 | 53 | 4.8 | 11.3 | 0.00 | 0.08 | 0.00 | 87 | 1016.6 |
| 20260906061549 | 20 | 46 | 4.8 | 14.5 | 0.00 | 0.08 | 0.00 | 88 | 1016.7 |
| 20260906060045 | 20 | 39 | 4.8 | 8.0 | 0.00 | 0.08 | 0.00 | 90 | 1016.5 |
| 20260906054603 | 20 | 34 | 3.2 | 12.9 | 0.00 | 0.08 | 0.00 | 90 | 1016.3 |
| 20260906053048 | 20 | 0 | 3.2 | 8.0 | 0.00 | 0.08 | 0.00 | 91 | 1016.1 |
| 20260906051546 | 20 | 0 | 0.0 | 4.8 | 0.00 | 0.08 | 0.00 | 91 | 1016.1 |
| 20260906050046 | 20 | 97 | 1.6 | 11.3 | 0.00 | 0.08 | 0.00 | 91 | 1016.1 |
| 20260906044549 | 20 | 0 | 0.0 | 4.8 | 0.00 | 0.08 | 0.00 | 91 | 1016.0 |
| 20260906043045 | 20 | 79 | 0.0 | 12.9 | 0.00 | 0.08 | 0.00 | 91 | 1015.8 |
| 20260906041546 | 20 | 0 | 1.6 | 6.4 | 0.00 | 0.08 | 0.00 | 91 | 1015.8 |
| 20260906040048 | 21 | 48 | 0.0 | 8.0 | 0.00 | 0.08 | 0.00 | 90 | 1015.9 |
| 20260906034552 | 21 | 45 | 3.2 | 11.3 | 0.00 | 0.08 | 0.08 | 89 | 1016.1 |
| 20260906033046 | 21 | 118 | 1.6 | 8.0 | 0.00 | 0.08 | 0.08 | 90 | 1016.1 |
| 20260906031605 | 21 | 62 | 4.8 | 20.9 | 0.00 | 0.08 | 0.08 | 88 | 1016.1 |
| 20260906030049 | 22 | 11 | 6.4 | 17.7 | 0.00 | 0.08 | 0.08 | 91 | 1015.9 |
| 20260906024558 | 22 | 59 | 4.8 | 12.9 | 0.00 | 0.08 | 0.08 | 91 | 1015.7 |
| 20260906023047 | 22 | 93 | 6.4 | 14.5 | 0.00 | 0.08 | 0.08 | 90 | 1015.4 |
| 20260906021546 | 22 | 67 | 6.4 | 16.1 | 0.00 | 0.08 | 0.08 | 90 | 1015.3 |
| 20260906020047 | 22 | 58 | 1.6 | 14.5 | 0.00 | 0.08 | 0.08 | 91 | 1015.3 |
| 20260906014544 | 23 | 79 | 1.6 | 9.7 | 0.00 | 0.08 | 0.08 | 90 | 1014.9 |
| 20260906013050 | 23 | 135 | 3.2 | 29.0 | 0.00 | 0.08 | 0.08 | 89 | 1014.6 |
| 20260906011548 | 23 | 225 | 9.7 | 20.9 | 0.00 | 0.08 | 0.08 | 89 | 1014.5 |
| 20260906010051 | 23 | 71 | 6.4 | 17.7 | 0.00 | 0.08 | 0.08 | 90 | 1014.4 |
| 20260906004546 | 23 | 84 | 3.2 | 11.3 | 0.00 | 0.08 | 0.08 | 89 | 1014.2 |
| 20260906003050 | 24 | 109 | 4.8 | 17.7 | 0.00 | 0.08 | 0.08 | 90 | 1013.9 |
| 20260906001548 | 24 | 55 | 3.2 | 11.3 | 0.00 | 0.08 | 0.08 | 89 | 1013.6 |
| 20260906000055 | 25 | 347 | 1.6 | 16.1 | 0.00 | 0.08 | 0.08 | 86 | 1013.6 |
| 20260905234550 | 25 | 56 | 8.0 | 17.7 | 0.00 | 0.08 | 0.08 | 82 | 1013.6 |
| 20260905233053 | 26 | 67 | 12.9 | 20.9 | 0.00 | 0.08 | 0.08 | 81 | 1013.7 |
| 20260905231546 | 27 | 340 | 3.2 | 8.0 | 0.00 | 0.08 | 0.08 | 81 | 1013.3 |
| 20260905230048 | 28 | 0 | 1.6 | 8.0 | 0.00 | 0.08 | 0.08 | 77 | 1012.9 |
| 20260905224549 | 28 | 5 | 4.8 | 12.9 | 0.00 | 0.08 | 0.08 | 77 | 1013.2 |
| 20260905223046 | 28 | 41 | 6.4 | 11.3 | 0.00 | 0.08 | 0.08 | 76 | 1013.1 |
| 20260905221544 | 29 | 31 | 4.8 | 14.5 | 0.00 | 0.08 | 0.08 | 75 | 1013.2 |
| 20260905220052 | 29 | 23 | 4.8 | 11.3 | 0.00 | 0.08 | 0.08 | 76 | 1013.0 |
| 20260905214550 | 29 | 31 | 9.7 | 16.1 | 0.00 | 0.08 | 0.08 | 76 | 1012.8 |
| 20260905213048 | 29 | 28 | 11.3 | 19.3 | 0.00 | 0.08 | 0.08 | 77 | 1012.8 |
| 20260905211601 | 29 | 349 | 11.3 | 20.9 | 0.00 | 0.08 | 0.08 | 75 | 1012.7 |
| 20260905204550 | 29 | 12 | 9.7 | 22.5 | 0.00 | 0.08 | 0.08 | 76 | 1012.9 |
| 20260905203045 | 30 | 44 | 12.9 | 19.3 | 0.00 | 0.08 | 0.08 | 76 | 1012.7 |
| 20260905201551 | 29 | 1 | 8.0 | 16.1 | 0.00 | 0.08 | 0.08 | 76 | 1013.0 |
| 20260905200101 | 30 | 39 | 11.3 | 17.7 | 0.00 | 0.08 | 0.08 | 73 | 1013.0 |
| 20260905194547 | 30 | 1 | 8.0 | 11.3 | 0.00 | 0.08 | 0.08 | 72 | 1013.3 |
| 20260905193044 | 30 | 35 | 4.8 | 11.3 | 0.00 | 0.08 | 0.08 | 74 | 1013.3 |
| 20260905191553 | 30 | 322 | 6.4 | 12.9 | 0.00 | 0.08 | 0.08 | 74 | 1013.4 |
| 20260905190051 | 31 | 317 | 9.7 | 16.1 | 0.00 | 0.08 | 0.08 | 69 | 1013.6 |
| 20260905184551 | 30 | 255 | 4.8 | 12.9 | 0.00 | 0.08 | 0.08 | 69 | 1013.7 |
| 20260905183046 | 30 | 279 | 4.8 | 11.3 | 0.00 | 0.08 | 0.08 | 69 | 1013.8 |
| 20260905181544 | 30 | 302 | 6.4 | 14.5 | 0.00 | 0.08 | 0.08 | 70 | 1013.9 |
| 20260905180059 | 30 | 282 | 4.8 | 12.9 | 0.00 | 0.08 | 0.08 | 69 | 1013.9 |
| 20260905174553 | 30 | 277 | 6.4 | 9.7 | 0.00 | 0.08 | 0.08 | 69 | 1014.1 |
| 20260905173058 | 30 | 192 | 3.2 | 9.7 | 0.00 | 0.08 | 0.08 | 72 | 1014.4 |
| 20260905171544 | 28 | 175 | 4.8 | 14.5 | 0.00 | 0.08 | 0.08 | 72 | 1014.6 |
| 20260905170050 | 28 | 188 | 9.7 | 19.3 | 0.00 | 0.08 | 0.08 | 73 | 1014.7 |
| 20260905164549 | 28 | 209 | 11.3 | 19.3 | 0.00 | 0.08 | 0.08 | 75 | 1014.7 |
| 20260905163045 | 27 | 188 | 8.0 | 16.1 | 0.00 | 0.08 | 0.08 | 75 | 1014.9 |
| 20260905161545 | 26 | 199 | 8.0 | 14.5 | 0.00 | 0.08 | 0.08 | 76 | 1015.1 |
| 20260905160049 | 26 | 188 | 8.0 | 14.5 | 0.00 | 0.08 | 0.08 | 80 | 1015.0 |
| 20260905154551 | 25 | 179 | 6.4 | 9.7 | 0.08 | 0.08 | 0.08 | 84 | 1014.9 |
| 20260905153046 | 23 | 192 | 4.8 | 8.0 | 0.08 | 0.08 | 0.08 | 86 | 1014.8 |
| 20260905151548 | 22 | 151 | 3.2 | 11.3 | 0.08 | 0.08 | 0.08 | 88 | 1014.9 |
| 20260905150048 | 23 | 162 | 8.0 | 11.3 | 0.08 | 0.08 | 0.08 | 83 | 1015.2 |
| 20260905144546 | 24 | 165 | 4.8 | 11.3 | 0.00 | 0.00 | 0.00 | 81 | 1015.2 |
| 20260905143049 | 24 | 217 | 6.4 | 19.3 | 0.00 | 0.00 | 0.00 | 82 | 1014.9 |
| 20260905141551 | 23 | 216 | 8.0 | 19.3 | 0.00 | 0.00 | 0.00 | 84 | 1014.5 |
| 20260905140047 | 23 | 210 | 11.3 | 22.5 | 0.00 | 0.00 | 0.00 | 85 | 1014.4 |
| 20260905134557 | 22 | 155 | 9.7 | 19.3 | 0.00 | 0.00 | 0.00 | 85 | 1014.5 |
| 20260905133053 | 22 | 192 | 11.3 | 24.1 | 0.00 | 0.00 | 0.00 | 87 | 1014.3 |
| 20260905131544 | 22 | 168 | 11.3 | 20.9 | 0.00 | 0.00 | 0.00 | 86 | 1014.3 |
| 20260905130047 | 21 | 160 | 11.3 | 19.3 | 0.00 | 0.00 | 0.00 | 88 | 1014.3 |
| 20260905124548 | 21 | 203 | 11.3 | 19.3 | 0.00 | 0.00 | 0.00 | 89 | 1014.3 |
| 20260905123045 | 21 | 163 | 9.7 | 16.1 | 0.00 | 0.00 | 0.00 | 91 | 1014.5 |
| 20260905121548 | 20 | 159 | 9.7 | 16.1 | 0.00 | 0.00 | 0.00 | 92 | 1014.6 |
| 20260905120047 | 20 | 179 | 4.8 | 8.0 | 0.00 | 0.00 | 0.00 | 93 | 1014.6 |
| 20260905114545 | 20 | 191 | 1.6 | 4.8 | 0.00 | 0.00 | 0.00 | 92 | 1014.7 |
| 20260905113043 | 20 | 145 | 3.2 | 8.0 | 0.00 | 0.00 | 0.00 | 92 | 1014.6 |
| 20260905111548 | 20 | 150 | 3.2 | 8.0 | 0.00 | 0.00 | 0.00 | 91 | 1014.6 |
| 20260905104544 | 21 | 167 | 1.6 | 11.3 | 0.00 | 0.00 | 0.00 | 90 | 1014.5 |
| 20260905103049 | 21 | 219 | 3.2 | 6.4 | 0.00 | 0.00 | 0.00 | 90 | 1014.5 |
| 20260905101602 | 21 | 221 | 1.6 | 6.4 | 0.00 | 0.00 | 0.00 | 90 | 1014.7 |
| 20260905100048 | 21 | 108 | 1.6 | 8.0 | 0.00 | 0.00 | 0.00 | 88 | 1014.7 |
| 20260905094547 | 22 | 115 | 3.2 | 6.4 | 0.00 | 0.00 | 0.00 | 87 | 1014.8 |
| 20260905093045 | 23 | 123 | 3.2 | 11.3 | 0.00 | 0.00 | 0.00 | 94 | 1014.9 |
| 20260905091600 | 23 | 94 | 4.8 | 20.9 | 0.00 | 0.00 | 0.00 | 95 | 1014.4 |
| 20260905090045 | 23 | 0 | 0.0 | 0.0 | 0.00 | 0.00 | 0.00 | 94 | 1013.6 |
| 20260905084545 | 23 | 0 | 0.0 | 0.0 | 0.00 | 0.00 | 0.00 | 94 | 1013.5 |
| 20260905083042 | 23 | 0 | 0.0 | 0.0 | 0.00 | 0.00 | 0.00 | 93 | 1013.6 |
| 20260905081547 | 23 | 0 | 0.0 | 1.6 | 0.00 | 0.00 | 0.00 | 92 | 1013.6 |